N0TOA-13 Weather Reports


time (UTC)temp
F
wind
direction
speed
knots
gust
knots
rain 1hr
in
rain 24hr
in
rain mn
in
humidity
%
barometer
mb
20260906214504 90 99 1.7 6.1 0.00 0.00 0.00 34 1019.9
20260906214005 91 43 0.9 6.1 0.00 0.00 0.00 32 994.1
20260906213005 91 322 0.9 6.1 0.00 0.00 0.00 34 994.2
20260906211454 91 34 1.7 6.1 0.00 0.00 0.00 32 1020.1
20260906211005 91 113 0.9 6.1 0.00 0.00 0.00 34 994.4
20260906210005 91 71 0.9 4.3 0.00 0.00 0.00 34 994.5
20260906205005 91 120 0.9 4.3 0.00 0.00 0.00 34 994.5
20260906204454 91 15 0.9 4.3 0.00 0.00 0.00 32 1020.4
20260906204005 90 21 0.9 4.3 0.00 0.00 0.00 34 994.7
20260906203005 90 80 1.7 4.3 0.00 0.00 0.00 36 994.8
20260906202954 91 89 1.7 4.3 0.00 0.00 0.00 32 1020.7
20260906202005 91 95 0.9 4.3 0.00 0.00 0.00 36 994.8
20260906201454 90 59 0.0 5.2 0.00 0.00 0.00 32 1020.7
20260906201005 90 93 0.9 5.2 0.00 0.00 0.00 36 994.9
20260906200005 89 107 1.7 6.1 0.00 0.00 0.00 36 994.9
20260906195005 89 26 1.7 4.3 0.00 0.00 0.00 36 995.1
20260906194005 89 22 1.7 6.1 0.00 0.00 0.00 36 995.2
20260906193004 89 37 0.9 4.3 0.00 0.00 0.00 46 995.3
20260906192954 89 106 0.9 4.3 0.00 0.00 0.00 34 1021.2
20260906191454 88 68 0.9 2.6 0.00 0.00 0.00 35 1021.5
20260906191004 88 80 0.9 2.6 0.00 0.00 0.00 46 995.6
20260906190005 87 358 0.9 6.1 0.00 0.00 0.00 46 995.7
20260906185954 87 263 0.9 6.1 0.00 0.00 0.00 35 1021.7
20260906185005 86 357 0.9 2.6 0.00 0.00 0.00 46 995.9
20260906184454 86 348 0.9 4.3 0.00 0.00 0.00 36 1021.9
20260906183005 85 353 0.9 2.6 0.00 0.00 0.00 53 996.2
20260906182005 83 352 0.9 2.6 0.00 0.00 0.00 53 996.5
20260906181454 83 91 0.9 4.3 0.00 0.00 0.00 40 1022.4
20260906181004 82 349 0.9 4.3 0.00 0.00 0.00 53 996.7
20260906180005 81 358 1.7 2.6 0.00 0.00 0.00 53 996.8
20260906175954 81 341 1.7 4.3 0.00 0.00 0.00 42 1022.7
20260906175005 79 48 0.9 2.6 0.00 0.00 0.00 53 996.9
20260906174454 78 2 0.9 5.2 0.00 0.00 0.00 48 1022.9
20260906174006 77 10 0.9 5.2 0.00 0.00 0.00 53 997.1
20260906173004 77 85 0.9 4.3 0.00 0.00 0.00 61 997.2
20260906172004 76 34 0.0 2.6 0.00 0.00 0.00 61 997.3
20260906171454 76 43 0.9 2.6 0.00 0.00 0.00 51 1023.3
20260906171005 75 341 0.9 2.6 0.00 0.00 0.00 61 997.4
20260906170004 75 33 0.9 5.2 0.00 0.00 0.00 61 997.5
20260906165954 75 73 0.9 5.2 0.00 0.00 0.00 54 1023.4
20260906165005 74 348 0.9 4.3 0.00 0.00 0.00 61 997.6
20260906164454 73 161 0.9 5.2 0.00 0.00 0.00 56 1023.5
20260906164005 73 266 0.9 5.2 0.00 0.00 0.00 61 997.6
20260906163004 72 344 0.9 4.3 0.00 0.00 0.00 70 997.6
20260906162954 72 335 0.9 4.3 0.00 0.00 0.00 58 1023.5
20260906162005 71 326 0.9 2.6 0.00 0.00 0.00 70 997.6
20260906161454 71 350 0.9 2.6 0.00 0.00 0.00 63 1023.5
20260906161005 70 354 1.7 2.6 0.00 0.00 0.00 70 997.6
20260906160005 70 332 0.0 4.3 0.00 0.00 0.00 70 997.6
20260906155954 70 297 0.0 4.3 0.00 0.00 0.00 65 1023.5
20260906155005 69 29 0.9 1.7 0.00 0.00 0.00 70 997.7
20260906154453 69 310 0.9 2.6 0.00 0.00 0.00 68 1023.6
20260906153005 68 335 1.7 6.1 0.00 0.00 0.00 74 997.8
20260906152954 68 319 1.7 6.1 0.00 0.00 0.00 70 1023.7
20260906151454 67 355 1.7 4.3 0.00 0.00 0.00 73 1023.8
20260906151005 67 291 0.9 2.6 0.00 0.00 0.00 74 997.9
20260906150005 67 332 0.9 5.2 0.00 0.00 0.00 74 997.8
20260906145954 67 327 0.9 4.3 0.00 0.00 0.00 72 1023.7
20260906144005 66 246 0.9 1.7 0.00 0.00 0.00 74 997.8
20260906142954 65 337 0.9 2.6 0.00 0.00 0.00 76 1023.6
20260906142004 64 325 0.9 2.6 0.00 0.00 0.00 77 997.9
20260906141453 64 312 0.9 4.3 0.00 0.00 0.00 77 1023.7
20260906141005 64 319 1.7 4.3 0.00 0.00 0.00 77 997.9
20260906140005 63 289 0.9 1.7 0.00 0.00 0.00 77 997.8
20260906135954 63 283 0.9 1.7 0.00 0.00 0.00 78 1023.7
20260906135005 62 308 0.9 1.7 0.00 0.00 0.00 77 997.8
20260906134004 60 321 0.0 0.9 0.00 0.00 0.00 77 997.6
20260906133005 60 297 0.0 0.9 0.00 0.00 0.00 67 997.6
20260906132004 60 346 0.9 0.9 0.00 0.00 0.00 67 997.4
20260906131453 60 340 0.9 1.7 0.00 0.00 0.00 78 1023.3
20260906131005 60 348 0.9 1.7 0.00 0.00 0.00 67 997.5
20260906125956 60 203 0.9 1.7 0.00 0.00 0.00 81 1023.4
20260906125005 60 0 0.9 0.9 0.00 0.00 0.00 67 997.4
20260906124005 60 349 0.0 0.9 0.00 0.00 0.00 67 997.4
20260906123005 60 357 1.7 1.7 0.00 0.00 0.00 72 997.4
20260906122005 59 328 0.0 2.6 0.00 0.00 0.00 72 997.2
20260906121005 60 0 0.0 1.7 0.00 0.00 0.00 72 997.2
20260906120005 60 338 1.7 1.7 0.00 0.00 0.00 72 997.2
20260906115005 60 0 0.9 1.7 0.00 0.00 0.00 72 997.2
20260906114005 60 349 0.9 1.7 0.00 0.00 0.00 72 997.2
20260906112005 61 345 0.9 1.7 0.00 0.00 0.00 67 997.1
20260906111005 61 358 0.0 0.9 0.00 0.00 0.00 67 997.1
20260906110005 62 47 0.0 1.7 0.00 0.00 0.00 67 997.1
20260906105005 62 0 0.0 0.9 0.00 0.00 0.00 67 997.0
20260906104005 62 0 0.0 0.9 0.00 0.00 0.00 67 996.8
20260906103005 63 291 0.0 0.9 0.00 0.00 0.00 67 996.7
20260906102004 63 0 0.0 0.9 0.00 0.00 0.00 67 996.7
20260906101005 63 0 0.0 0.0 0.00 0.00 0.00 67 996.8
20260906100004 63 0 0.0 0.9 0.00 0.00 0.00 67 996.8
20260906095005 63 0 0.0 0.9 0.00 0.00 0.00 67 996.7
20260906094005 64 0 0.0 0.0 0.00 0.00 0.00 67 996.7
20260906093005 63 339 0.9 0.9 0.00 0.00 0.00 58 996.7
20260906092004 63 0 0.0 0.9 0.00 0.00 0.00 58 996.7
20260906091005 64 346 0.0 0.0 0.00 0.00 0.00 58 996.7
20260906090005 64 0 0.0 0.9 0.00 0.00 0.00 58 996.6
20260906085005 65 0 0.0 0.0 0.00 0.00 0.00 58 996.5
20260906084005 66 0 0.0 0.9 0.00 0.00 0.00 58 996.5
20260906083005 66 14 0.9 1.7 0.00 0.00 0.00 72 996.6
20260906082005 66 8 0.9 1.7 0.00 0.00 0.00 72 996.7
20260906081005 66 0 0.0 0.9 0.00 0.00 0.00 72 996.7
20260906080005 66 0 0.9 0.9 0.00 0.00 0.00 72 996.8
20260906075005 67 0 0.0 0.9 0.00 0.00 0.00 72 996.8
20260906074004 68 358 0.0 2.6 0.00 0.00 0.00 72 996.6
20260906072005 69 326 0.0 1.7 0.00 0.00 0.00 54 996.3
20260906071005 70 0 0.0 1.7 0.00 0.00 0.00 54 996.2
20260906070005 71 343 0.9 2.6 0.00 0.00 0.00 63 996.1
20260906064005 71 350 0.9 5.2 0.00 0.00 0.00 63 996.1
20260906063005 70 339 2.6 4.3 0.00 0.00 0.00 34 996.1
20260906062005 70 341 0.0 2.6 0.00 0.00 0.00 34 996.1
20260906061005 70 14 0.9 2.6 0.00 0.00 0.00 34 996.3
20260906060005 71 350 1.7 8.7 0.00 0.00 0.00 35 996.6
20260906055005 73 353 0.9 6.1 0.00 0.00 0.00 35 996.9
20260906054005 75 255 0.9 4.3 0.00 0.00 0.00 35 996.8
20260906053005 75 336 1.7 5.2 0.00 0.00 0.00 27 996.4
20260906052005 73 341 2.6 5.2 0.00 0.00 0.00 27 996.4
20260906050005 72 332 0.0 1.7 0.00 0.00 0.00 27 996.6
20260906045005 73 0 0.0 0.9 0.00 0.00 0.00 27 996.6
20260906044005 74 358 0.0 0.9 0.00 0.00 0.00 27 996.8
20260906043005 75 2 0.0 1.7 0.00 0.00 0.00 28 996.8
20260906042005 75 5 0.0 1.7 0.00 0.00 0.00 28 996.8
20260906041005 76 17 0.0 1.7 0.00 0.00 0.00 28 996.8
20260906040005 76 0 0.9 4.3 0.00 0.00 0.00 28 996.6
20260906035005 76 0 0.9 1.7 0.00 0.00 0.00 28 996.7
20260906034005 76 0 0.0 1.7 0.00 0.00 0.00 28 996.4
20260906033005 77 353 0.0 1.7 0.00 0.00 0.00 29 996.0
20260906032005 77 17 0.9 2.6 0.00 0.00 0.00 29 995.9
20260906031005 78 353 0.9 2.6 0.00 0.00 0.00 29 995.8
20260906030005 78 350 0.9 2.6 0.00 0.00 0.00 29 995.7
20260906024005 78 12 0.9 2.6 0.00 0.00 0.00 29 995.5
20260906023005 79 358 0.0 1.7 0.00 0.00 0.00 26 995.5
20260906022005 79 359 0.9 1.7 0.00 0.00 0.00 26 995.5
20260906020005 79 317 0.9 1.7 0.00 0.00 0.00 26 995.3
20260906015005 80 351 0.0 1.7 0.00 0.00 0.00 26 995.1
20260906014005 81 0 0.0 0.9 0.00 0.00 0.00 26 995.0
20260906013005 82 0 0.0 0.0 0.00 0.00 0.00 18 994.8
20260906012005 84 0 0.0 0.0 0.00 0.00 0.00 18 994.8
20260906011005 85 0 0.0 0.0 0.00 0.00 0.00 18 994.8
20260906010004 86 3 0.0 2.6 0.00 0.00 0.00 18 994.8
20260906005005 87 153 0.9 2.6 0.00 0.00 0.00 18 994.9
20260906004005 88 285 0.0 1.7 0.00 0.00 0.00 18 994.8
20260906003005 90 0 0.0 1.7 0.00 0.00 0.00 18 994.8
20260906002005 91 44 0.9 1.7 0.00 0.00 0.00 18 994.7
20260905235005 95 0 0.9 1.7 0.00 0.00 0.00 18 994.6
20260905234005 96 0 0.9 0.9 0.00 0.00 0.00 18 994.6
20260905233005 96 274 0.9 1.7 0.00 0.00 0.00 19 994.6
20260905232005 95 328 0.9 1.7 0.00 0.00 0.00 19 994.5
20260905231004 95 324 0.9 4.3 0.00 0.00 0.00 19 994.5
20260905230005 94 345 0.9 4.3 0.00 0.00 0.00 19 994.6
20260905225005 94 0 0.9 1.7 0.00 0.00 0.00 19 994.5
20260905224005 94 0 0.9 6.1 0.00 0.00 0.00 19 994.4
20260905223005 93 332 0.0 5.2 0.00 0.00 0.00 20 994.6
20260905222005 93 210 0.9 4.3 0.00 0.00 0.00 20 994.6
20260905221005 93 79 0.0 5.2 0.00 0.00 0.00 20 994.6
20260905220004 93 318 0.0 1.7 0.00 0.00 0.00 20 994.7
20260905215005 93 336 0.9 4.3 0.00 0.00 0.00 20 994.8